アトラス彗星

C/2024 J3 ( ATLAS )

English version
Home page
Updated on May 2, 2025

---------------------------------------------------------------------

・ プロフィール

発見日 2024年5月6日
発見光度 17.6等
発見者 Asteroid Terrestrial-Impact Last Alert System (ATLAS) search program

・ 写真集

・ 軌道要素

Epoch 2025 May 5.0 TT = JDT 2460800.5
T 2026 Nov. 25.31806 TT                                 Payne
q   3.8651111            (2000.0)            P               Q
z  -0.0002048      Peri.   74.08890     +0.30471266     -0.19907776
 +/-0.0000035      Node   285.96120     -0.55223380     +0.75982941
e   1.0007915      Incl.   75.63938     +0.77600775     +0.61889201
From 307 observations 2024 May 6-2025 Apr. 30, mean residual 0".5.

・ 星図

・ 光度変化

        m1 = 4.2 + 5 logΔ + 10.0 log r

---------------------------------------------------------------------

軌道要素はM.P.E.C. 2025-J08に掲載されたものです。
星図はステラナビゲータ Ver.11 (アストロアーツ) で作成したものです。
光度グラフはComet for Windowsで作成したものです。

---------------------------------------------------------------------

Copyright(C) Seiichi Yoshida (comet@aerith.net). All rights reserved.